Time,TemperatureF,DewpointF,PressureIn,WindDirection,WindDirectionDegrees,WindSpeedMPH,WindSpeedGustMPH,Humidity,HourlyPrecipIn,Conditions,Clouds,dailyrainin,SoftwareType,DateUTC
2013-01-26 00:02:00,30.1,23.1,30.26,ESE,103,5.0,7.0,75,0.00,,,0.00,VWS V14.00,2013-01-26 06:02:00,
2013-01-26 00:07:00,30.0,23.4,30.27,ENE,71,5.0,6.0,76,0.00,,,0.00,VWS V14.00,2013-01-26 06:07:00,
2013-01-26 00:12:00,29.8,23.2,30.27,East,89,4.0,6.0,76,0.00,,,0.00,VWS V14.00,2013-01-26 06:12:00,
2013-01-26 00:17:00,29.7,23.1,30.27,East,90,4.0,6.0,76,0.00,,,0.00,VWS V14.00,2013-01-26 06:17:00,
2013-01-26 00:22:00,29.4,22.8,30.27,East,90,6.0,7.0,76,0.00,,,0.00,VWS V14.00,2013-01-26 06:22:00,
2013-01-26 00:27:00,29.2,22.9,30.27,East,94,4.0,9.0,77,0.00,,,0.00,VWS V14.00,2013-01-26 06:27:00,
2013-01-26 00:32:00,29.0,22.7,30.27,East,94,3.0,9.0,77,0.00,,,0.00,VWS V14.00,2013-01-26 06:32:00,
2013-01-26 00:37:00,28.9,22.6,30.27,East,79,9.0,10.0,77,0.00,,,0.00,VWS V14.00,2013-01-26 06:37:00,
2013-01-26 00:42:00,28.8,22.8,30.27,East,82,6.0,12.0,78,0.00,,,0.00,VWS V14.00,2013-01-26 06:42:00,
2013-01-26 00:47:00,28.7,22.7,30.27,East,80,8.0,12.0,78,0.00,,,0.00,VWS V14.00,2013-01-26 06:47:00,
2013-01-26 00:52:00,28.5,22.5,30.27,East,99,5.0,13.0,78,0.00,,,0.00,VWS V14.00,2013-01-26 06:52:00,
2013-01-26 00:57:00,28.3,22.6,30.27,East,79,7.0,13.0,79,0.00,,,0.00,VWS V14.00,2013-01-26 06:57:00,
2013-01-26 01:02:00,28.2,22.5,30.27,East,86,7.0,13.0,79,0.00,,,0.00,VWS V14.00,2013-01-26 07:02:00,
2013-01-26 01:07:00,28.0,22.3,30.27,East,95,6.0,9.0,79,0.00,,,0.00,VWS V14.00,2013-01-26 07:07:00,
2013-01-26 01:12:00,27.9,22.2,30.26,East,99,5.0,9.0,79,0.00,,,0.00,VWS V14.00,2013-01-26 07:12:00,
2013-01-26 01:17:00,27.7,22.0,30.26,East,83,9.0,11.0,79,0.00,,,0.00,VWS V14.00,2013-01-26 07:17:00,
2013-01-26 01:22:00,27.6,22.0,30.26,East,93,3.0,11.0,79,0.00,,,0.00,VWS V14.00,2013-01-26 07:22:00,
2013-01-26 01:27:00,27.4,22.0,30.26,East,86,6.0,11.0,80,0.00,,,0.00,VWS V14.00,2013-01-26 07:27:00,
2013-01-26 01:32:00,27.3,22.0,30.26,ESE,103,2.0,11.0,80,0.00,,,0.00,VWS V14.00,2013-01-26 07:32:00,
2013-01-26 01:37:00,27.2,21.9,30.26,East,80,5.0,8.0,80,0.00,,,0.00,VWS V14.00,2013-01-26 07:37:00,
2013-01-26 01:42:00,27.1,21.8,30.26,ENE,76,1.0,9.0,80,0.00,,,0.00,VWS V14.00,2013-01-26 07:42:00,
2013-01-26 01:47:00,26.9,21.6,30.26,ESE,113,2.0,9.0,80,0.00,,,0.00,VWS V14.00,2013-01-26 07:47:00,
2013-01-26 01:52:00,26.7,21.4,30.26,ESE,102,5.0,9.0,80,0.00,,,0.00,VWS V14.00,2013-01-26 07:52:00,
2013-01-26 01:57:00,26.6,21.3,30.26,East,91,5.0,9.0,80,0.00,,,0.00,VWS V14.00,2013-01-26 07:57:00,
2013-01-26 02:02:00,26.4,21.4,30.26,East,87,6.0,9.0,81,0.00,,,0.00,VWS V14.00,2013-01-26 08:02:00,
2013-01-26 02:07:00,26.2,21.2,30.26,ESE,110,3.0,7.0,81,0.00,,,0.00,VWS V14.00,2013-01-26 08:07:00,
2013-01-26 02:12:00,26.2,21.2,30.26,East,90,5.0,9.0,81,0.00,,,0.00,VWS V14.00,2013-01-26 08:12:00,
2013-01-26 02:17:00,26.0,21.0,30.27,ESE,103,3.0,9.0,81,0.00,,,0.00,VWS V14.00,2013-01-26 08:17:00,
2013-01-26 02:22:00,25.9,20.9,30.27,East,100,0.0,9.0,81,0.00,,,0.00,VWS V14.00,2013-01-26 08:22:00,
2013-01-26 02:26:00,25.7,20.7,30.27,ESE,115,2.0,9.0,81,0.00,,,0.00,VWS V14.00,2013-01-26 08:26:00,
2013-01-26 02:31:00,25.6,20.9,30.27,East,95,0.0,9.0,82,0.00,,,0.00,VWS V14.00,2013-01-26 08:31:00,
2013-01-26 02:36:00,25.4,20.7,30.27,East,79,2.0,6.0,82,0.00,,,0.00,VWS V14.00,2013-01-26 08:36:00,
2013-01-26 02:41:00,25.3,20.6,30.27,East,95,2.0,6.0,82,0.00,,,0.00,VWS V14.00,2013-01-26 08:41:00,
2013-01-26 02:46:00,25.2,20.5,30.26,East,96,4.0,6.0,82,0.00,,,0.00,VWS V14.00,2013-01-26 08:46:00,
2013-01-26 02:51:00,25.0,20.3,30.26,East,90,1.0,6.0,82,0.00,,,0.00,VWS V14.00,2013-01-26 08:51:00,
2013-01-26 02:56:00,24.9,20.2,30.26,East,99,5.0,6.0,82,0.00,,,0.00,VWS V14.00,2013-01-26 08:56:00,
2013-01-26 03:01:00,24.8,20.4,30.26,East,89,6.0,6.0,83,0.00,,,0.00,VWS V14.00,2013-01-26 09:01:00,
2013-01-26 03:06:00,24.7,20.3,30.25,East,98,1.0,4.0,83,0.00,,,0.00,VWS V14.00,2013-01-26 09:06:00,
2013-01-26 03:11:00,24.6,20.2,30.25,SE,134,2.0,6.0,83,0.00,,,0.00,VWS V14.00,2013-01-26 09:11:00,
2013-01-26 03:16:00,24.6,20.2,30.25,ESE,109,2.0,6.0,83,0.00,,,0.00,VWS V14.00,2013-01-26 09:16:00,
2013-01-26 03:21:00,24.6,20.2,30.25,East,83,2.0,6.0,83,0.00,,,0.00,VWS V14.00,2013-01-26 09:21:00,
2013-01-26 03:26:00,24.6,20.2,30.25,ESE,111,0.0,6.0,83,0.00,,,0.00,VWS V14.00,2013-01-26 09:26:00,
2013-01-26 03:31:00,24.6,20.2,30.25,East,98,0.0,9.0,83,0.00,,,0.00,VWS V14.00,2013-01-26 09:31:00,
2013-01-26 03:36:00,24.7,20.3,30.25,East,98,1.0,5.0,83,0.00,,,0.00,VWS V14.00,2013-01-26 09:36:00,
2013-01-26 03:41:00,24.6,20.5,30.25,SE,136,2.0,6.0,84,0.00,,,0.00,VWS V14.00,2013-01-26 09:41:00,
2013-01-26 03:46:00,24.5,20.1,30.25,East,101,5.0,6.0,83,0.00,,,0.00,VWS V14.00,2013-01-26 09:46:00,
2013-01-26 03:51:00,24.5,20.1,30.25,East,90,1.0,9.0,83,0.00,,,0.00,VWS V14.00,2013-01-26 09:51:00,
2013-01-26 03:56:00,24.5,20.4,30.24,East,90,1.0,9.0,84,0.00,,,0.00,VWS V14.00,2013-01-26 09:56:00,
2013-01-26 04:01:00,24.4,20.3,30.24,SE,125,4.0,9.0,84,0.00,,,0.00,VWS V14.00,2013-01-26 10:01:00,
2013-01-26 04:06:00,24.3,20.2,30.24,ESE,106,2.0,6.0,84,0.00,,,0.00,VWS V14.00,2013-01-26 10:06:00,
2013-01-26 04:11:00,24.2,20.1,30.24,ESE,111,3.0,7.0,84,0.00,,,0.00,VWS V14.00,2013-01-26 10:11:00,
2013-01-26 04:16:00,24.2,20.1,30.24,East,98,2.0,9.0,84,0.00,,,0.00,VWS V14.00,2013-01-26 10:16:00,
2013-01-26 04:21:00,24.1,20.0,30.24,ESE,106,6.0,9.0,84,0.00,,,0.00,VWS V14.00,2013-01-26 10:21:00,
2013-01-26 04:26:00,24.0,19.9,30.24,ESE,105,3.0,9.0,84,0.00,,,0.00,VWS V14.00,2013-01-26 10:26:00,
2013-01-26 04:31:00,24.0,19.9,30.24,ESE,111,5.0,9.0,84,0.00,,,0.00,VWS V14.00,2013-01-26 10:31:00,
2013-01-26 04:36:00,23.9,19.8,30.23,East,101,6.0,9.0,84,0.00,,,0.00,VWS V14.00,2013-01-26 10:36:00,
2013-01-26 04:41:00,23.9,19.8,30.23,SE,125,1.0,9.0,84,0.00,,,0.00,VWS V14.00,2013-01-26 10:41:00,
2013-01-26 04:46:00,23.9,19.8,30.23,ESE,121,4.0,9.0,84,0.00,,,0.00,VWS V14.00,2013-01-26 10:46:00,
2013-01-26 04:51:00,23.8,19.7,30.23,East,101,5.0,9.0,84,0.00,,,0.00,VWS V14.00,2013-01-26 10:51:00,
2013-01-26 04:56:00,23.8,19.4,30.23,ESE,111,2.0,9.0,83,0.00,,,0.00,VWS V14.00,2013-01-26 10:56:00,
2013-01-26 05:01:00,23.7,19.3,30.23,ESE,119,4.0,9.0,83,0.00,,,0.00,VWS V14.00,2013-01-26 11:01:00,
2013-01-26 05:06:00,23.6,19.2,30.23,ESE,102,2.0,10.0,83,0.00,,,0.00,VWS V14.00,2013-01-26 11:06:00,
2013-01-26 05:11:00,23.6,19.2,30.24,South,189,2.0,10.0,83,0.00,,,0.00,VWS V14.00,2013-01-26 11:11:00,
2013-01-26 05:16:00,23.5,19.1,30.24,ESE,107,3.0,10.0,83,0.00,,,0.00,VWS V14.00,2013-01-26 11:16:00,
2013-01-26 05:21:00,23.5,19.1,30.24,East,90,2.0,10.0,83,0.00,,,0.00,VWS V14.00,2013-01-26 11:21:00,
2013-01-26 05:26:00,23.4,19.0,30.23,ESE,103,1.0,10.0,83,0.00,,,0.00,VWS V14.00,2013-01-26 11:26:00,
2013-01-26 05:31:00,23.2,18.8,30.23,SE,126,7.0,10.0,83,0.00,,,0.00,VWS V14.00,2013-01-26 11:31:00,
2013-01-26 05:36:00,23.1,18.7,30.23,East,91,4.0,10.0,83,0.00,,,0.00,VWS V14.00,2013-01-26 11:36:00,
2013-01-26 05:41:00,23.0,18.6,30.23,ESE,110,5.0,10.0,83,0.00,,,0.00,VWS V14.00,2013-01-26 11:41:00,
2013-01-26 05:46:00,23.0,18.9,30.23,East,98,4.0,10.0,84,0.00,,,0.00,VWS V14.00,2013-01-26 11:46:00,
2013-01-26 05:51:00,22.9,18.8,30.23,ESE,120,4.0,10.0,84,0.00,,,0.00,VWS V14.00,2013-01-26 11:51:00,
2013-01-26 05:56:00,22.9,18.8,30.23,ESE,111,3.0,10.0,84,0.00,,,0.00,VWS V14.00,2013-01-26 11:56:00,
2013-01-26 06:01:00,22.9,18.5,30.23,ESE,110,5.0,10.0,83,0.00,,,0.00,VWS V14.00,2013-01-26 12:01:00,
2013-01-26 06:06:00,22.9,18.8,30.22,ESE,121,4.0,6.0,84,0.00,,,0.00,VWS V14.00,2013-01-26 12:06:00,
2013-01-26 06:11:00,22.9,18.8,30.23,SE,128,1.0,7.0,84,0.00,,,0.00,VWS V14.00,2013-01-26 12:11:00,
2013-01-26 06:16:00,22.9,18.8,30.22,East,100,2.0,9.0,84,0.00,,,0.00,VWS V14.00,2013-01-26 12:16:00,
2013-01-26 06:21:00,22.9,18.8,30.23,ESE,104,1.0,9.0,84,0.00,,,0.00,VWS V14.00,2013-01-26 12:21:00,
2013-01-26 06:26:00,22.9,18.8,30.23,ESE,107,4.0,9.0,84,0.00,,,0.00,VWS V14.00,2013-01-26 12:26:00,
2013-01-26 06:31:00,23.0,18.9,30.23,ESE,102,2.0,9.0,84,0.00,,,0.00,VWS V14.00,2013-01-26 12:31:00,
2013-01-26 06:36:00,23.1,19.0,30.23,SE,129,7.0,7.0,84,0.00,,,0.00,VWS V14.00,2013-01-26 12:36:00,
2013-01-26 06:41:00,23.1,18.7,30.23,East,99,3.0,10.0,83,0.00,,,0.00,VWS V14.00,2013-01-26 12:41:00,
2013-01-26 06:46:00,23.2,18.8,30.23,East,98,2.0,10.0,83,0.00,,,0.00,VWS V14.00,2013-01-26 12:46:00,
2013-01-26 06:51:00,23.2,18.8,30.23,ESE,118,2.0,10.0,83,0.00,,,0.00,VWS V14.00,2013-01-26 12:51:00,
2013-01-26 06:56:00,23.1,18.7,30.22,ESE,123,3.0,10.0,83,0.00,,,0.00,VWS V14.00,2013-01-26 12:56:00,
2013-01-26 07:01:00,23.0,18.6,30.22,ESE,107,0.0,10.0,83,0.00,,,0.00,VWS V14.00,2013-01-26 13:01:00,
2013-01-26 07:06:00,23.0,18.6,30.23,ESE,106,3.0,8.0,83,0.00,,,0.00,VWS V14.00,2013-01-26 13:06:00,
2013-01-26 07:11:00,22.9,18.5,30.22,ESE,123,6.0,8.0,83,0.00,,,0.00,VWS V14.00,2013-01-26 13:11:00,
2013-01-26 07:16:00,22.7,18.3,30.22,SE,125,0.0,8.0,83,0.00,,,0.00,VWS V14.00,2013-01-26 13:16:00,
2013-01-26 07:21:00,22.6,18.2,30.23,East,80,2.0,9.0,83,0.00,,,0.00,VWS V14.00,2013-01-26 13:21:00,
2013-01-26 07:26:00,22.5,18.1,30.23,East,97,5.0,9.0,83,0.00,,,0.00,VWS V14.00,2013-01-26 13:26:00,
2013-01-26 07:31:00,22.5,18.4,30.23,East,96,4.0,9.0,84,0.00,,,0.00,VWS V14.00,2013-01-26 13:31:00,
2013-01-26 07:36:00,22.5,18.4,30.23,East,96,2.0,6.0,84,0.00,,,0.00,VWS V14.00,2013-01-26 13:36:00,
2013-01-26 07:41:00,22.5,18.4,30.23,ESE,117,0.0,9.0,84,0.00,,,0.00,VWS V14.00,2013-01-26 13:41:00,
2013-01-26 07:46:00,22.5,18.4,30.23,ESE,111,6.0,9.0,84,0.00,,,0.00,VWS V14.00,2013-01-26 13:46:00,
2013-01-26 07:51:00,22.4,18.3,30.23,ESE,114,4.0,9.0,84,0.00,,,0.00,VWS V14.00,2013-01-26 13:51:00,
2013-01-26 07:56:00,22.4,18.3,30.23,ESE,115,5.0,9.0,84,0.00,,,0.00,VWS V14.00,2013-01-26 13:56:00,
2013-01-26 08:01:00,22.4,18.3,30.23,SE,134,6.0,9.0,84,0.00,,,0.00,VWS V14.00,2013-01-26 14:01:00,
2013-01-26 08:06:00,22.3,18.2,30.23,South,178,2.0,7.0,84,0.00,,,0.00,VWS V14.00,2013-01-26 14:06:00,
2013-01-26 08:11:00,22.4,18.3,30.23,East,92,6.0,9.0,84,0.00,,,0.00,VWS V14.00,2013-01-26 14:11:00,
2013-01-26 08:16:00,22.4,18.3,30.23,ESE,112,2.0,9.0,84,0.00,,,0.00,VWS V14.00,2013-01-26 14:16:00,
2013-01-26 08:21:00,22.5,18.4,30.23,ESE,113,7.0,9.0,84,0.00,,,0.00,VWS V14.00,2013-01-26 14:21:00,
2013-01-26 08:26:00,22.6,18.5,30.23,East,94,0.0,11.0,84,0.00,,,0.00,VWS V14.00,2013-01-26 14:26:00,
2013-01-26 08:31:00,22.8,18.7,30.23,East,84,5.0,11.0,84,0.00,,,0.00,VWS V14.00,2013-01-26 14:31:00,
2013-01-26 08:36:00,23.0,18.9,30.23,ESE,106,2.0,6.0,84,0.00,,,0.00,VWS V14.00,2013-01-26 14:36:00,
2013-01-26 08:41:00,23.3,19.2,30.23,East,98,4.0,7.0,84,0.00,,,0.00,VWS V14.00,2013-01-26 14:41:00,
2013-01-26 08:46:00,23.7,19.6,30.23,East,86,1.0,9.0,84,0.00,,,0.00,VWS V14.00,2013-01-26 14:46:00,
2013-01-26 08:50:00,24.1,20.0,30.23,ESE,103,4.0,10.0,84,0.00,,,0.00,VWS V14.00,2013-01-26 14:50:00,
2013-01-26 08:55:00,24.6,20.5,30.23,SE,143,4.0,10.0,84,0.00,,,0.00,VWS V14.00,2013-01-26 14:55:00,
2013-01-26 09:00:00,25.2,20.8,30.23,East,91,9.0,10.0,83,0.00,,,0.00,VWS V14.00,2013-01-26 15:00:00,
2013-01-26 09:05:00,25.7,21.0,30.23,ESE,106,4.0,5.0,82,0.00,,,0.00,VWS V14.00,2013-01-26 15:05:00,
2013-01-26 09:10:00,26.2,21.5,30.23,ESE,104,2.0,13.0,82,0.00,,,0.00,VWS V14.00,2013-01-26 15:10:00,
2013-01-26 09:15:00,26.6,21.6,30.23,ESE,108,9.0,13.0,81,0.00,,,0.00,VWS V14.00,2013-01-26 15:15:00,
2013-01-26 09:20:00,27.0,21.7,30.23,East,82,2.0,13.0,80,0.00,,,0.00,VWS V14.00,2013-01-26 15:20:00,
2013-01-26 09:25:00,27.4,22.0,30.23,SE,125,6.0,13.0,80,0.00,,,0.00,VWS V14.00,2013-01-26 15:25:00,
2013-01-26 09:30:00,27.7,22.0,30.22,ESE,117,10.0,13.0,79,0.00,,,0.00,VWS V14.00,2013-01-26 15:30:00,
2013-01-26 09:35:00,28.1,22.4,30.22,SE,133,4.0,4.0,79,0.00,,,0.00,VWS V14.00,2013-01-26 15:35:00,
2013-01-26 09:40:00,28.6,22.9,30.22,SE,134,7.0,11.0,79,0.00,,,0.00,VWS V14.00,2013-01-26 15:40:00,
2013-01-26 09:45:00,29.0,23.0,30.22,SE,125,8.0,12.0,78,0.00,,,0.00,VWS V14.00,2013-01-26 15:45:00,
2013-01-26 09:50:00,29.4,23.1,30.22,SE,132,9.0,12.0,77,0.00,,,0.00,VWS V14.00,2013-01-26 15:50:00,
2013-01-26 09:55:00,29.8,23.5,30.22,ESE,118,5.0,12.0,77,0.00,,,0.00,VWS V14.00,2013-01-26 15:55:00,
2013-01-26 10:00:00,30.3,23.7,30.22,East,79,2.0,12.0,76,0.00,,,0.00,VWS V14.00,2013-01-26 16:00:00,
2013-01-26 10:05:00,30.7,23.7,30.22,ESE,119,2.0,4.0,75,0.00,,,0.00,VWS V14.00,2013-01-26 16:05:00,
2013-01-26 10:10:00,31.0,24.0,30.23,SE,145,2.0,13.0,75,0.00,,,0.00,VWS V14.00,2013-01-26 16:10:00,
2013-01-26 10:15:00,31.4,24.4,30.23,East,98,1.0,13.0,75,0.00,,,0.00,VWS V14.00,2013-01-26 16:15:00,
2013-01-26 10:20:00,31.6,24.3,30.23,ESE,117,9.0,13.0,74,0.00,,,0.00,VWS V14.00,2013-01-26 16:20:00,
2013-01-26 10:25:00,31.9,24.6,30.23,East,87,1.0,13.0,74,0.00,,,0.00,VWS V14.00,2013-01-26 16:25:00,
2013-01-26 10:30:00,32.3,24.6,30.23,East,82,2.0,13.0,73,0.00,,,0.00,VWS V14.00,2013-01-26 16:30:00,
2013-01-26 10:35:00,32.9,25.2,30.23,ESE,121,2.0,6.0,73,0.00,,,0.00,VWS V14.00,2013-01-26 16:35:00,
2013-01-26 10:40:00,33.6,25.5,30.23,ESE,118,9.0,10.0,72,0.00,,,0.00,VWS V14.00,2013-01-26 16:40:00,
2013-01-26 10:45:00,34.4,26.0,30.22,ESE,123,10.0,12.0,71,0.00,,,0.00,VWS V14.00,2013-01-26 16:45:00,
2013-01-26 10:50:00,34.8,26.4,30.22,ESE,123,5.0,13.0,71,0.00,,,0.00,VWS V14.00,2013-01-26 16:50:00,
2013-01-26 10:55:00,35.6,26.8,30.22,East,90,3.0,13.0,70,0.00,,,0.00,VWS V14.00,2013-01-26 16:55:00,
2013-01-26 11:00:00,36.5,27.3,30.21,South,170,5.0,13.0,69,0.00,,,0.00,VWS V14.00,2013-01-26 17:00:00,
2013-01-26 11:05:00,37.5,27.5,30.21,SSE,158,6.0,10.0,67,0.00,,,0.00,VWS V14.00,2013-01-26 17:05:00,
2013-01-26 11:10:00,38.5,27.8,30.21,SSE,160,6.0,15.0,65,0.00,,,0.00,VWS V14.00,2013-01-26 17:10:00,
2013-01-26 11:15:00,39.2,27.7,30.21,SSE,159,9.0,15.0,63,0.00,,,0.00,VWS V14.00,2013-01-26 17:15:00,
2013-01-26 11:20:00,40.0,28.0,30.20,SSE,152,6.0,15.0,62,0.00,,,0.00,VWS V14.00,2013-01-26 17:20:00,
2013-01-26 11:25:00,40.6,28.2,30.20,SE,140,8.0,15.0,61,0.00,,,0.00,VWS V14.00,2013-01-26 17:25:00,
2013-01-26 11:30:00,40.9,28.1,30.20,SSE,163,12.0,15.0,60,0.00,,,0.00,VWS V14.00,2013-01-26 17:30:00,
2013-01-26 11:35:00,41.2,28.0,30.20,South,173,7.0,10.0,59,0.00,,,0.00,VWS V14.00,2013-01-26 17:35:00,
2013-01-26 11:40:00,41.6,28.4,30.20,ESE,105,3.0,14.0,59,0.00,,,0.00,VWS V14.00,2013-01-26 17:40:00,
2013-01-26 11:45:00,42.1,28.4,30.19,SE,140,11.0,14.0,58,0.00,,,0.00,VWS V14.00,2013-01-26 17:45:00,
2013-01-26 11:50:00,42.5,28.8,30.19,ESE,119,12.0,16.0,58,0.00,,,0.00,VWS V14.00,2013-01-26 17:50:00,
2013-01-26 11:55:00,43.0,28.8,30.19,SSE,151,9.0,16.0,57,0.00,,,0.00,VWS V14.00,2013-01-26 17:55:00,
2013-01-26 12:00:00,43.4,29.2,30.18,South,188,4.0,16.0,57,0.00,,,0.00,VWS V14.00,2013-01-26 18:00:00,
2013-01-26 12:05:00,44.4,29.3,30.17,SSE,163,4.0,10.0,55,0.00,,,0.00,VWS V14.00,2013-01-26 18:05:00,
2013-01-26 12:10:00,45.6,29.0,30.17,SE,128,9.0,13.0,52,0.00,,,0.00,VWS V14.00,2013-01-26 18:10:00,
2013-01-26 12:15:00,46.0,28.9,30.17,SE,129,7.0,17.0,51,0.00,,,0.00,VWS V14.00,2013-01-26 18:15:00,
2013-01-26 12:20:00,46.5,28.9,30.17,SE,146,10.0,17.0,50,0.00,,,0.00,VWS V14.00,2013-01-26 18:20:00,
2013-01-26 12:25:00,46.6,29.0,30.17,SSE,165,6.0,17.0,50,0.00,,,0.00,VWS V14.00,2013-01-26 18:25:00,
2013-01-26 12:30:00,46.8,29.2,30.16,SSW,194,10.0,17.0,50,0.00,,,0.00,VWS V14.00,2013-01-26 18:30:00,
2013-01-26 12:35:00,46.9,29.7,30.16,East,83,3.0,11.0,51,0.00,,,0.00,VWS V14.00,2013-01-26 18:35:00,
2013-01-26 12:40:00,46.9,29.7,30.15,SE,134,7.0,14.0,51,0.00,,,0.00,VWS V14.00,2013-01-26 18:40:00,
2013-01-26 12:45:00,47.3,30.1,30.15,SE,141,2.0,14.0,51,0.00,,,0.00,VWS V14.00,2013-01-26 18:45:00,
2013-01-26 12:50:00,47.7,30.5,30.15,SSE,156,10.0,15.0,51,0.00,,,0.00,VWS V14.00,2013-01-26 18:50:00,
2013-01-26 12:55:00,47.9,30.2,30.14,South,188,7.0,16.0,50,0.00,,,0.00,VWS V14.00,2013-01-26 18:55:00,
2013-01-26 13:00:00,48.4,30.1,30.14,SE,138,8.0,16.0,49,0.00,,,0.00,VWS V14.00,2013-01-26 19:00:00,
2013-01-26 13:05:00,49.0,30.2,30.13,SSE,167,7.0,12.0,48,0.00,,,0.00,VWS V14.00,2013-01-26 19:05:00,
2013-01-26 13:10:00,49.7,30.3,30.12,SE,141,18.0,18.0,47,0.00,,,0.00,VWS V14.00,2013-01-26 19:10:00,
2013-01-26 13:15:00,50.4,29.9,30.12,SSE,168,9.0,18.0,45,0.00,,,0.00,VWS V14.00,2013-01-26 19:15:00,
2013-01-26 13:20:00,51.2,29.5,30.12,SE,136,12.0,18.0,43,0.00,,,0.00,VWS V14.00,2013-01-26 19:20:00,
2013-01-26 13:25:00,51.6,29.3,30.12,SSW,198,14.0,20.0,42,0.00,,,0.00,VWS V14.00,2013-01-26 19:25:00,
2013-01-26 13:30:00,52.0,29.6,30.11,SE,145,5.0,20.0,42,0.00,,,0.00,VWS V14.00,2013-01-26 19:30:00,
2013-01-26 13:35:00,52.3,29.9,30.11,SSE,168,7.0,14.0,42,0.00,,,0.00,VWS V14.00,2013-01-26 19:35:00,
2013-01-26 13:40:00,52.6,30.2,30.11,SSE,155,5.0,14.0,42,0.00,,,0.00,VWS V14.00,2013-01-26 19:40:00,
2013-01-26 13:45:00,53.0,30.0,30.11,South,178,7.0,14.0,41,0.00,,,0.00,VWS V14.00,2013-01-26 19:45:00,
2013-01-26 13:50:00,53.5,29.8,30.11,SSE,157,8.0,14.0,40,0.00,,,0.00,VWS V14.00,2013-01-26 19:50:00,
2013-01-26 13:55:00,53.8,30.1,30.10,South,171,4.0,15.0,40,0.00,,,0.00,VWS V14.00,2013-01-26 19:55:00,
2013-01-26 14:00:00,54.4,30.0,30.10,SSE,150,2.0,15.0,39,0.00,,,0.00,VWS V14.00,2013-01-26 20:00:00,
2013-01-26 14:05:00,55.2,28.7,30.10,SSW,199,7.0,9.0,36,0.00,,,0.00,VWS V14.00,2013-01-26 20:05:00,
2013-01-26 14:10:00,55.5,29.0,30.10,SSE,156,12.0,16.0,36,0.00,,,0.00,VWS V14.00,2013-01-26 20:10:00,
2013-01-26 14:15:00,55.6,29.1,30.10,South,182,6.0,19.0,36,0.00,,,0.00,VWS V14.00,2013-01-26 20:15:00,
2013-01-26 14:20:00,55.8,29.3,30.09,SW,217,14.0,19.0,36,0.00,,,0.00,VWS V14.00,2013-01-26 20:20:00,
2013-01-26 14:25:00,56.1,29.5,30.09,SSW,200,1.0,19.0,36,0.00,,,0.00,VWS V14.00,2013-01-26 20:25:00,
2013-01-26 14:29:00,56.3,29.7,30.09,SSE,163,3.0,19.0,36,0.00,,,0.00,VWS V14.00,2013-01-26 20:29:00,
2013-01-26 14:34:00,56.4,29.1,30.09,SE,145,7.0,7.0,35,0.00,,,0.00,VWS V14.00,2013-01-26 20:34:00,
2013-01-26 14:39:00,56.3,29.0,30.08,SSE,157,3.0,12.0,35,0.00,,,0.00,VWS V14.00,2013-01-26 20:39:00,
2013-01-26 14:44:00,56.4,29.1,30.08,South,181,11.0,12.0,35,0.00,,,0.00,VWS V14.00,2013-01-26 20:44:00,
2013-01-26 14:49:00,56.5,29.2,30.08,South,190,5.0,19.0,35,0.00,,,0.00,VWS V14.00,2013-01-26 20:49:00,
2013-01-26 14:54:00,56.4,29.1,30.08,South,176,8.0,19.0,35,0.00,,,0.00,VWS V14.00,2013-01-26 20:54:00,
2013-01-26 14:59:00,56.3,29.0,30.08,South,183,4.0,19.0,35,0.00,,,0.00,VWS V14.00,2013-01-26 20:59:00,
2013-01-26 15:04:00,56.4,29.1,30.07,SSE,153,5.0,19.0,35,0.00,,,0.00,VWS V14.00,2013-01-26 21:04:00,
2013-01-26 15:09:00,56.5,29.2,30.07,SSE,157,1.0,16.0,35,0.00,,,0.00,VWS V14.00,2013-01-26 21:09:00,
2013-01-26 15:14:00,56.5,29.2,30.07,South,173,3.0,16.0,35,0.00,,,0.00,VWS V14.00,2013-01-26 21:14:00,
2013-01-26 15:19:00,56.5,29.2,30.07,SSE,159,3.0,20.0,35,0.00,,,0.00,VWS V14.00,2013-01-26 21:19:00,
2013-01-26 15:24:00,56.4,29.1,30.07,SSE,165,3.0,20.0,35,0.00,,,0.00,VWS V14.00,2013-01-26 21:24:00,
2013-01-26 15:29:00,56.3,29.0,30.07,South,173,10.0,20.0,35,0.00,,,0.00,VWS V14.00,2013-01-26 21:29:00,
2013-01-26 15:34:00,56.3,29.7,30.07,SSE,165,3.0,20.0,36,0.00,,,0.00,VWS V14.00,2013-01-26 21:34:00,
2013-01-26 15:39:00,56.3,29.0,30.07,SW,229,5.0,12.0,35,0.00,,,0.00,VWS V14.00,2013-01-26 21:39:00,
2013-01-26 15:44:00,56.3,29.0,30.06,SSE,157,1.0,13.0,35,0.00,,,0.00,VWS V14.00,2013-01-26 21:44:00,
2013-01-26 15:49:00,56.2,28.9,30.06,SSE,156,5.0,13.0,35,0.00,,,0.00,VWS V14.00,2013-01-26 21:49:00,
2013-01-26 15:54:00,56.1,29.5,30.06,SSE,168,5.0,13.0,36,0.00,,,0.00,VWS V14.00,2013-01-26 21:54:00,
2013-01-26 15:59:00,56.0,30.1,30.06,SSE,149,0.0,13.0,37,0.00,,,0.00,VWS V14.00,2013-01-26 21:59:00,
2013-01-26 16:04:00,55.9,29.4,30.06,SE,144,4.0,13.0,36,0.00,,,0.00,VWS V14.00,2013-01-26 22:04:00,
2013-01-26 16:09:00,55.7,29.2,30.06,SSE,153,3.0,7.0,36,0.00,,,0.00,VWS V14.00,2013-01-26 22:09:00,
2013-01-26 16:14:00,55.5,29.0,30.06,South,176,2.0,10.0,36,0.00,,,0.00,VWS V14.00,2013-01-26 22:14:00,
2013-01-26 16:19:00,55.3,29.5,30.05,SSE,160,3.0,10.0,37,0.00,,,0.00,VWS V14.00,2013-01-26 22:19:00,
2013-01-26 16:24:00,55.3,28.8,30.05,South,172,5.0,12.0,36,0.00,,,0.00,VWS V14.00,2013-01-26 22:24:00,
2013-01-26 16:29:00,55.3,28.8,30.05,South,190,5.0,12.0,36,0.00,,,0.00,VWS V14.00,2013-01-26 22:29:00,
2013-01-26 16:34:00,55.1,28.6,30.05,SSE,166,7.0,12.0,36,0.00,,,0.00,VWS V14.00,2013-01-26 22:34:00,
2013-01-26 16:39:00,54.9,28.5,30.05,South,191,11.0,11.0,36,0.00,,,0.00,VWS V14.00,2013-01-26 22:39:00,
2013-01-26 16:44:00,54.7,28.3,30.04,SSE,153,1.0,11.0,36,0.00,,,0.00,VWS V14.00,2013-01-26 22:44:00,
2013-01-26 16:49:00,54.3,27.9,30.04,SSE,156,3.0,11.0,36,0.00,,,0.00,VWS V14.00,2013-01-26 22:49:00,
2013-01-26 16:54:00,54.0,28.3,30.04,South,170,2.0,11.0,37,0.00,,,0.00,VWS V14.00,2013-01-26 22:54:00,
2013-01-26 16:59:00,53.6,28.0,30.04,SSE,150,0.0,11.0,37,0.00,,,0.00,VWS V14.00,2013-01-26 22:59:00,
2013-01-26 17:04:00,53.3,27.7,30.03,SSE,161,2.0,11.0,37,0.00,,,0.00,VWS V14.00,2013-01-26 23:04:00,
2013-01-26 17:09:00,53.0,28.1,30.04,South,171,8.0,8.0,38,0.00,,,0.00,VWS V14.00,2013-01-26 23:09:00,
2013-01-26 17:14:00,52.7,27.8,30.04,South,178,1.0,8.0,38,0.00,,,0.00,VWS V14.00,2013-01-26 23:14:00,
2013-01-26 17:19:00,52.4,27.6,30.03,SSE,157,3.0,8.0,38,0.00,,,0.00,VWS V14.00,2013-01-26 23:19:00,
2013-01-26 17:24:00,52.0,27.8,30.03,SE,145,0.0,8.0,39,0.00,,,0.00,VWS V14.00,2013-01-26 23:24:00,
2013-01-26 17:29:00,51.5,27.4,30.03,SE,137,1.0,8.0,39,0.00,,,0.00,VWS V14.00,2013-01-26 23:29:00,
2013-01-26 17:34:00,51.0,27.5,30.03,SE,134,0.0,8.0,40,0.00,,,0.00,VWS V14.00,2013-01-26 23:34:00,
2013-01-26 17:39:00,50.5,27.1,30.03,SE,140,0.0,0.0,40,0.00,,,0.00,VWS V14.00,2013-01-26 23:39:00,
2013-01-26 17:44:00,50.0,27.2,30.03,SE,137,0.0,3.0,41,0.00,,,0.00,VWS V14.00,2013-01-26 23:44:00,
2013-01-26 17:49:00,49.6,26.9,30.03,SE,136,0.0,3.0,41,0.00,,,0.00,VWS V14.00,2013-01-26 23:49:00,
2013-01-26 17:54:00,49.1,27.0,30.03,SE,129,0.0,3.0,42,0.00,,,0.00,VWS V14.00,2013-01-26 23:54:00,
2013-01-26 17:59:00,48.7,26.6,30.03,SE,125,0.0,4.0,42,0.00,,,0.00,VWS V14.00,2013-01-26 23:59:00,
2013-01-26 18:04:00,48.3,26.3,30.03,SE,124,0.0,4.0,42,0.00,,,0.00,VWS V14.00,2013-01-27 00:04:00,
2013-01-26 18:09:00,48.0,26.0,30.03,SE,130,3.0,5.0,42,0.00,,,0.00,VWS V14.00,2013-01-27 00:09:00,
2013-01-26 18:14:00,47.8,26.4,30.03,SE,125,1.0,5.0,43,0.00,,,0.00,VWS V14.00,2013-01-27 00:14:00,
2013-01-26 18:19:00,47.6,26.2,30.04,SE,140,4.0,6.0,43,0.00,,,0.00,VWS V14.00,2013-01-27 00:19:00,
2013-01-26 18:24:00,47.4,26.0,30.04,SE,138,0.0,6.0,43,0.00,,,0.00,VWS V14.00,2013-01-27 00:24:00,
2013-01-26 18:29:00,47.1,26.3,30.04,ESE,120,0.0,6.0,44,0.00,,,0.00,VWS V14.00,2013-01-27 00:29:00,
2013-01-26 18:34:00,46.8,26.0,30.04,SE,134,2.0,6.0,44,0.00,,,0.00,VWS V14.00,2013-01-27 00:34:00,
2013-01-26 18:39:00,46.6,25.9,30.04,SE,128,0.0,4.0,44,0.00,,,0.00,VWS V14.00,2013-01-27 00:39:00,
2013-01-26 18:44:00,46.4,25.7,30.04,ESE,121,0.0,4.0,44,0.00,,,0.00,VWS V14.00,2013-01-27 00:44:00,
2013-01-26 18:49:00,46.2,25.5,30.04,SE,129,5.0,6.0,44,0.00,,,0.00,VWS V14.00,2013-01-27 00:49:00,
2013-01-26 18:54:00,46.0,25.3,30.04,ESE,115,4.0,7.0,44,0.00,,,0.00,VWS V14.00,2013-01-27 00:54:00,
2013-01-26 18:59:00,45.8,25.7,30.04,SSE,148,3.0,9.0,45,0.00,,,0.00,VWS V14.00,2013-01-27 00:59:00,
2013-01-26 19:04:00,45.7,25.6,30.04,SE,146,5.0,9.0,45,0.00,,,0.00,VWS V14.00,2013-01-27 01:04:00,
2013-01-26 19:09:00,45.6,25.5,30.03,SE,130,6.0,6.0,45,0.00,,,0.00,VWS V14.00,2013-01-27 01:09:00,
2013-01-26 19:14:00,45.4,25.3,30.03,SE,141,6.0,7.0,45,0.00,,,0.00,VWS V14.00,2013-01-27 01:14:00,
2013-01-26 19:19:00,45.2,25.1,30.04,SSE,148,4.0,8.0,45,0.00,,,0.00,VWS V14.00,2013-01-27 01:19:00,
2013-01-26 19:24:00,45.0,25.0,30.04,SE,144,0.0,8.0,45,0.00,,,0.00,VWS V14.00,2013-01-27 01:24:00,
2013-01-26 19:29:00,44.9,24.9,30.03,SSE,150,1.0,8.0,45,0.00,,,0.00,VWS V14.00,2013-01-27 01:29:00,
2013-01-26 19:34:00,44.6,25.1,30.03,SE,129,4.0,8.0,46,0.00,,,0.00,VWS V14.00,2013-01-27 01:34:00,
2013-01-26 19:39:00,44.5,25.0,30.04,ESE,122,6.0,7.0,46,0.00,,,0.00,VWS V14.00,2013-01-27 01:39:00,
2013-01-26 19:44:00,44.4,24.9,30.04,SSE,152,5.0,10.0,46,0.00,,,0.00,VWS V14.00,2013-01-27 01:44:00,
2013-01-26 19:49:00,44.3,24.8,30.03,SE,126,4.0,10.0,46,0.00,,,0.00,VWS V14.00,2013-01-27 01:49:00,
2013-01-26 19:54:00,44.3,24.8,30.03,SE,126,4.0,10.0,46,0.00,,,0.00,VWS V14.00,2013-01-27 01:54:00,
2013-01-26 19:59:00,44.3,24.8,30.03,SE,132,5.0,10.0,46,0.00,,,0.00,VWS V14.00,2013-01-27 01:59:00,
2013-01-26 20:04:00,44.3,24.8,30.03,ESE,114,3.0,10.0,46,0.00,,,0.00,VWS V14.00,2013-01-27 02:04:00,
2013-01-26 20:09:00,44.1,24.7,30.03,ESE,108,3.0,8.0,46,0.00,,,0.00,VWS V14.00,2013-01-27 02:09:00,
2013-01-26 20:14:00,44.0,25.1,30.03,SSE,153,8.0,10.0,47,0.00,,,0.00,VWS V14.00,2013-01-27 02:14:00,
2013-01-26 20:18:00,43.9,25.0,30.03,ESE,123,3.0,10.0,47,0.00,,,0.00,VWS V14.00,2013-01-27 02:18:00,
2013-01-26 20:23:00,43.7,24.8,30.03,ESE,117,3.0,10.0,47,0.00,,,0.00,VWS V14.00,2013-01-27 02:23:00,
2013-01-26 20:28:00,43.6,24.7,30.03,SE,130,2.0,10.0,47,0.00,,,0.00,VWS V14.00,2013-01-27 02:28:00,
2013-01-26 20:33:00,43.4,24.5,30.03,SE,128,6.0,10.0,47,0.00,,,0.00,VWS V14.00,2013-01-27 02:33:00,
2013-01-26 20:38:00,43.3,24.4,30.02,ESE,104,2.0,11.0,47,0.00,,,0.00,VWS V14.00,2013-01-27 02:38:00,
2013-01-26 20:43:00,43.2,24.4,30.02,SE,126,7.0,11.0,47,0.00,,,0.00,VWS V14.00,2013-01-27 02:43:00,
2013-01-26 20:48:00,43.1,24.8,30.02,SE,128,5.0,11.0,48,0.00,,,0.00,VWS V14.00,2013-01-27 02:48:00,
2013-01-26 20:53:00,42.9,24.6,30.02,ESE,113,9.0,11.0,48,0.00,,,0.00,VWS V14.00,2013-01-27 02:53:00,
2013-01-26 20:58:00,42.7,24.9,30.02,SE,124,3.0,11.0,49,0.00,,,0.00,VWS V14.00,2013-01-27 02:58:00,
2013-01-26 21:03:00,42.5,24.7,30.02,ESE,119,3.0,11.0,49,0.00,,,0.00,VWS V14.00,2013-01-27 03:03:00,
2013-01-26 21:08:00,42.3,24.5,30.02,SE,129,5.0,10.0,49,0.00,,,0.00,VWS V14.00,2013-01-27 03:08:00,
2013-01-26 21:13:00,42.0,24.7,30.01,SE,128,7.0,11.0,50,0.00,,,0.00,VWS V14.00,2013-01-27 03:13:00,
2013-01-26 21:18:00,41.8,24.5,30.01,ESE,117,5.0,11.0,50,0.00,,,0.00,VWS V14.00,2013-01-27 03:18:00,
2013-01-26 21:23:00,41.6,24.8,30.01,ESE,113,4.0,11.0,51,0.00,,,0.00,VWS V14.00,2013-01-27 03:23:00,
2013-01-26 21:28:00,41.4,24.6,30.01,SE,137,5.0,11.0,51,0.00,,,0.00,VWS V14.00,2013-01-27 03:28:00,
2013-01-26 21:33:00,41.3,24.5,30.01,ESE,103,6.0,11.0,51,0.00,,,0.00,VWS V14.00,2013-01-27 03:33:00,
2013-01-26 21:38:00,41.3,24.5,30.01,ESE,121,6.0,10.0,51,0.00,,,0.00,VWS V14.00,2013-01-27 03:38:00,
2013-01-26 21:43:00,41.3,24.5,30.02,ESE,116,5.0,10.0,51,0.00,,,0.00,VWS V14.00,2013-01-27 03:43:00,
2013-01-26 21:48:00,41.3,25.0,30.02,SE,144,5.0,10.0,52,0.00,,,0.00,VWS V14.00,2013-01-27 03:48:00,
2013-01-26 21:53:00,41.2,24.9,30.02,ESE,109,6.0,11.0,52,0.00,,,0.00,VWS V14.00,2013-01-27 03:53:00,
2013-01-26 21:58:00,41.1,24.8,30.02,SE,137,6.0,11.0,52,0.00,,,0.00,VWS V14.00,2013-01-27 03:58:00,
2013-01-26 22:03:00,41.0,24.7,30.02,SE,135,8.0,11.0,52,0.00,,,0.00,VWS V14.00,2013-01-27 04:03:00,
2013-01-26 22:08:00,40.9,24.6,30.01,East,100,6.0,10.0,52,0.00,,,0.00,VWS V14.00,2013-01-27 04:08:00,
2013-01-26 22:13:00,40.7,24.5,30.01,SE,129,6.0,10.0,52,0.00,,,0.00,VWS V14.00,2013-01-27 04:13:00,
2013-01-26 22:18:00,40.6,24.8,30.01,SE,139,3.0,11.0,53,0.00,,,0.00,VWS V14.00,2013-01-27 04:18:00,
2013-01-26 22:23:00,40.4,24.6,30.01,ESE,104,6.0,11.0,53,0.00,,,0.00,VWS V14.00,2013-01-27 04:23:00,
2013-01-26 22:28:00,40.2,24.5,30.01,SE,130,7.0,11.0,53,0.00,,,0.00,VWS V14.00,2013-01-27 04:28:00,
2013-01-26 22:33:00,40.0,24.7,30.01,SE,124,4.0,11.0,54,0.00,,,0.00,VWS V14.00,2013-01-27 04:33:00,
2013-01-26 22:38:00,40.0,24.7,30.01,SE,141,4.0,7.0,54,0.00,,,0.00,VWS V14.00,2013-01-27 04:38:00,
2013-01-26 22:43:00,39.9,24.6,30.01,SE,126,5.0,7.0,54,0.00,,,0.00,VWS V14.00,2013-01-27 04:43:00,
2013-01-26 22:48:00,39.8,25.0,30.01,ESE,111,0.0,7.0,55,0.00,,,0.00,VWS V14.00,2013-01-27 04:48:00,
2013-01-26 22:53:00,39.8,25.0,30.01,SE,136,5.0,9.0,55,0.00,,,0.00,VWS V14.00,2013-01-27 04:53:00,
2013-01-26 22:58:00,39.9,25.1,30.00,SE,132,3.0,9.0,55,0.00,,,0.00,VWS V14.00,2013-01-27 04:58:00,
2013-01-26 23:00:00,39.9,25.1,30.00,SE,134,6.0,9.0,55,0.00,,,0.00,VWS V14.00,2013-01-27 05:00:00,
2013-01-26 23:01:00,40.0,25.1,30.00,SE,142,2.0,9.0,55,0.00,,,0.00,VWS V14.00,2013-01-27 05:01:00,
2013-01-26 23:06:00,40.1,25.2,30.00,SE,140,5.0,5.0,55,0.00,,,0.00,VWS V14.00,2013-01-27 05:06:00,
2013-01-26 23:11:00,40.2,25.3,30.00,ESE,119,3.0,7.0,55,0.00,,,0.00,VWS V14.00,2013-01-27 05:11:00,
2013-01-26 23:16:00,40.5,25.2,30.00,ESE,103,2.0,7.0,54,0.00,,,0.00,VWS V14.00,2013-01-27 05:16:00,
2013-01-26 23:21:00,40.7,25.8,30.00,East,101,0.0,7.0,55,0.00,,,0.00,VWS V14.00,2013-01-27 05:21:00,
2013-01-26 23:26:00,40.6,25.3,30.00,ESE,107,3.0,7.0,54,0.00,,,0.00,VWS V14.00,2013-01-27 05:26:00,
2013-01-26 23:31:00,40.5,25.6,30.00,ESE,105,2.0,7.0,55,0.00,,,0.00,VWS V14.00,2013-01-27 05:31:00,
2013-01-26 23:36:00,40.5,25.6,30.00,ESE,118,0.0,1.0,55,0.00,,,0.00,VWS V14.00,2013-01-27 05:36:00,
2013-01-26 23:41:00,40.5,25.6,29.99,ESE,111,0.0,4.0,55,0.00,,,0.00,VWS V14.00,2013-01-27 05:41:00,
2013-01-26 23:46:00,40.4,25.5,29.99,ESE,109,0.0,5.0,55,0.00,,,0.00,VWS V14.00,2013-01-27 05:46:00,
2013-01-26 23:51:00,40.3,25.9,29.99,ESE,112,0.0,5.0,56,0.00,,,0.00,VWS V14.00,2013-01-27 05:51:00,
2013-01-26 23:56:00,40.1,25.7,29.99,ESE,116,2.0,5.0,56,0.00,,,0.00,VWS V14.00,2013-01-27 05:56:00,